TimeAKDT,TemperatureF,Dew PointF,Humidity,Sea Level PressureIn,VisibilityMPH,Wind Direction,Wind SpeedMPH,Gust SpeedMPH,PrecipitationIn,Events,Conditions,WindDirDegrees,DateUTC
12:53 AM,48.9,46.9,93,29.76,10.0,SSE,9.2,-,0.01,,Overcast,150,2013-09-27 08:53:00
1:53 AM,48.9,46.9,93,29.75,6.0,Variable,4.6,-,0.07,Rain,Light Rain,0,2013-09-27 09:53:00
2:24 AM,48.2,46.4,93,29.76,6.0,SW,5.8,-,0.01,Rain,Light Rain,220,2013-09-27 10:24:00
2:45 AM,48.2,46.4,93,29.75,10.0,Calm,Calm,-,0.06,Rain,Light Rain,0,2013-09-27 10:45:00
2:53 AM,48.9,46.9,93,29.75,7.0,South,4.6,-,0.08,Rain,Rain,180,2013-09-27 10:53:00
3:53 AM,48.9,46.0,90,29.74,10.0,Variable,3.5,-,0.07,Rain,Light Rain,0,2013-09-27 11:53:00
4:53 AM,48.0,46.0,93,29.73,10.0,Calm,Calm,-,0.01,,Overcast,0,2013-09-27 12:53:00
5:53 AM,48.0,45.0,89,29.71,10.0,Calm,Calm,-,0.01,Rain,Light Rain,0,2013-09-27 13:53:00
6:53 AM,46.9,46.0,97,29.70,10.0,North,3.5,-,0.00,,Overcast,360,2013-09-27 14:53:00
7:04 AM,46.4,46.4,100,29.69,10.0,North,3.5,-,N/A,,Overcast,350,2013-09-27 15:04:00
7:53 AM,48.0,46.0,93,29.68,10.0,SE,3.5,-,0.01,Rain,Light Rain,140,2013-09-27 15:53:00
8:29 AM,48.2,46.4,93,29.66,10.0,Variable,3.5,-,0.01,Rain,Light Rain,0,2013-09-27 16:29:00
8:53 AM,48.9,48.0,97,29.66,10.0,Variable,3.5,-,0.02,Rain,Light Rain,0,2013-09-27 16:53:00
9:44 AM,50.0,46.4,87,29.63,4.0,Calm,Calm,-,0.02,Rain,Light Rain,0,2013-09-27 17:44:00
9:53 AM,50.0,48.0,93,29.63,7.0,Calm,Calm,-,0.02,Rain,Light Rain,0,2013-09-27 17:53:00
10:53 AM,51.1,46.9,86,29.60,10.0,Variable,5.8,-,0.01,,Overcast,0,2013-09-27 18:53:00
11:33 AM,51.8,48.2,88,29.58,10.0,Variable,5.8,-,0.02,Rain,Light Rain,0,2013-09-27 19:33:00
11:51 AM,51.8,48.2,88,29.56,10.0,Variable,5.8,-,0.02,,Overcast,0,2013-09-27 19:51:00
11:53 AM,51.1,48.0,89,29.56,10.0,SE,8.1,-,0.02,,Overcast,140,2013-09-27 19:53:00
12:53 PM,52.0,46.0,80,29.53,10.0,South,8.1,19.6,N/A,,Mostly Cloudy,170,2013-09-27 20:53:00
1:53 PM,50.0,46.9,89,29.50,4.0,SSW,5.8,-,0.03,,Overcast,200,2013-09-27 21:53:00
2:10 PM,50.0,46.4,87,29.48,6.0,Variable,4.6,-,0.03,,Overcast,0,2013-09-27 22:10:00
2:31 PM,50.0,46.4,87,29.46,5.0,Variable,3.5,-,0.06,Rain,Rain,0,2013-09-27 22:31:00
2:53 PM,50.0,46.9,89,29.45,10.0,Variable,5.8,-,0.06,,Overcast,0,2013-09-27 22:53:00
3:53 PM,51.1,46.9,86,29.40,10.0,SSW,4.6,-,N/A,,Overcast,200,2013-09-27 23:53:00
4:53 PM,50.0,46.0,86,29.36,6.0,SSE,9.2,-,0.04,Rain,Light Rain,160,2013-09-28 00:53:00
5:53 PM,48.9,46.0,90,29.30,6.0,Variable,4.6,-,0.10,,Overcast,0,2013-09-28 01:53:00
6:53 PM,48.9,46.0,90,29.25,9.0,Calm,Calm,-,0.08,Rain,Light Rain,0,2013-09-28 02:53:00
7:53 PM,48.9,45.0,86,29.21,9.0,Calm,Calm,-,0.08,Rain,Rain,0,2013-09-28 03:53:00
8:53 PM,48.0,46.0,93,29.16,7.0,Calm,Calm,-,0.08,Rain,Rain,0,2013-09-28 04:53:00
9:53 PM,48.9,44.1,83,29.12,8.0,Variable,3.5,-,0.06,Rain,Light Rain,0,2013-09-28 05:53:00
10:53 PM,50.0,43.0,77,29.07,10.0,Variable,3.5,-,0.04,Rain,Light Rain,0,2013-09-28 06:53:00
11:53 PM,46.9,46.0,97,29.04,10.0,Variable,4.6,-,0.03,Rain,Light Rain,0,2013-09-28 07:53:00